Weather History for Rogers, AR

Change the Weather History Date:

Friday, November 1, 2013

  Actual Average Record
Temperature  
Mean Temperature 54 °F -  
Max Temperature 64 °F 60 °F 78 °F (2003)
Min Temperature 45 °F 44 °F 26 °F (2014)
Degree Days  
Heating Degree Days 10    
Growing Degree Days 4 (Base 50)    
Moisture  
Dew Point 41 °F    
Average Humidity 65    
Maximum Humidity 86    
Minimum Humidity 33    
Precipitation  
Precipitation 0.00 in - - ()
Sea Level Pressure  
Sea Level Pressure 29.87 in    
Wind  
Wind Speed 8 mph (West)    
Max Wind Speed 13 mph    
Max Gust Speed 17 mph    
Visibility 10 miles    
Events      
Averages and records for this station are not official NWS values.
T = Trace of Precipitation, MM = Missing Value Source: NWS Daily Summary

Daily Weather History Graph

Daily Weather History Graph

Search for Another Location

Airport:

Trip Planner

Search our weather history database for the weather conditions in past years. The results will help you decide how hot, cold, wet, or windy it might be!

Date:

Astronomy

Nov. 01, 2013 Rise Set
Actual Time 7:39 AM CDT 6:19 PM CDT
Civil Twilight 7:13 AM CDT 6:46 PM CDT
Nautical Twilight 6:42 AM CDT 7:16 PM CDT
Astronomical Twilight 6:12 AM CDT 7:46 PM CDT
Moon 5:35 AM CDT (11/1) 5:10 PM CDT (11/1)
Length of Visible Light 11h 33m
Length of Day
10h 39m
Waning Crescent, 4% of the Moon is Illuminated
Nov 1
Waning Crescent
Nov 3
New
Nov 9
First Quarter
Nov 17
Full
Nov 25
Last Quarter

Hourly Weather History & Observations

Time (CDT) Temp. Windchill Dew Point Humidity Pressure Visibility Wind Dir Wind Speed Gust Speed Precip Events Conditions
12:57 AM 50.0 °F - 45.0 °F 83% 29.79 in 10.0 mi SSW 12.7 mph - N/A   Clear
1:57 AM 48.0 °F - 44.1 °F 86% 29.79 in 10.0 mi SW 5.8 mph - N/A   Clear
2:57 AM 46.9 °F - 43.0 °F 86% 29.78 in 10.0 mi SW 6.9 mph - N/A   Clear
3:57 AM 46.9 °F - 43.0 °F 86% 29.78 in 10.0 mi SW 5.8 mph - N/A   Clear
4:57 AM 46.9 °F - 42.1 °F 83% 29.78 in 10.0 mi SW 9.2 mph - N/A   Clear
5:57 AM 46.9 °F - 42.1 °F 83% 29.80 in 10.0 mi SW 8.1 mph - N/A   Clear
6:57 AM 46.0 °F 42.5 °F 41.0 °F 83% 29.82 in 10.0 mi SW 6.9 mph - N/A   Clear
7:57 AM 45.0 °F 41.8 °F 39.9 °F 82% 29.84 in 10.0 mi SW 5.8 mph - N/A   Clear
8:57 AM 48.0 °F - 42.1 °F 80% 29.87 in 10.0 mi SW 8.1 mph - N/A   Clear
9:57 AM 52.0 °F - 44.1 °F 74% 29.88 in 10.0 mi SW 5.8 mph - N/A   Clear
10:57 AM 55.9 °F - 45.0 °F 67% 29.88 in 10.0 mi SW 5.8 mph - N/A   Clear
11:57 AM 61.0 °F - 43.0 °F 52% 29.88 in 10.0 mi West 9.2 mph 16.1 mph N/A   Clear
12:57 PM 64.0 °F - 37.9 °F 38% 29.86 in 10.0 mi NW 9.2 mph - N/A   Clear
1:57 PM 64.0 °F - 36.0 °F 35% 29.85 in 10.0 mi WNW 9.2 mph - N/A   Clear
2:57 PM 64.9 °F - 35.1 °F 33% 29.83 in 10.0 mi WNW 12.7 mph - N/A   Clear
3:57 PM 64.9 °F - 36.0 °F 34% 29.85 in 10.0 mi West 9.2 mph 17.3 mph N/A   Clear
4:57 PM 63.0 °F - 37.0 °F 38% 29.86 in 10.0 mi WNW 10.4 mph - N/A   Clear
5:57 PM 60.1 °F - 41.0 °F 49% 29.88 in 10.0 mi WNW 6.9 mph - N/A   Scattered Clouds
6:57 PM 57.0 °F - 39.9 °F 53% 29.91 in 10.0 mi NW 5.8 mph - N/A   Mostly Cloudy
7:57 PM 55.0 °F - 41.0 °F 59% 29.95 in 10.0 mi NW 8.1 mph - 0.00 in   Mostly Cloudy
8:57 PM 53.1 °F - 41.0 °F 64% 29.97 in 10.0 mi WNW 8.1 mph - N/A   Partly Cloudy
9:57 PM 51.1 °F - 41.0 °F 68% 30.00 in 10.0 mi WNW 5.8 mph - N/A   Clear
10:57 PM 48.9 °F - 41.0 °F 74% 30.02 in 10.0 mi West 5.8 mph - N/A   Clear
11:57 PM 46.9 °F - 39.9 °F 77% 30.01 in 10.0 mi WSW 6.9 mph - N/A   Clear